Location: Baia Mare
(47.6567°N, 23.5850°E)
Time: 20:11:07
(UTC+03:00)

ISS - Pass Details

Date: 15 March 2018
Orbit: 403 x 408 km, 51.6° (Epoch: 20 September)

Event Time Altitude Azimuth Distance (km) Brightness Sun altitude
Exits shadow 03:54:36 22° 67° (ENE) 973 -1.2 -27.5°
Drops below altitude 10° 03:56:01 10° 80° (E) 1,489 -0.1 -27.3°
Sets 03:58:11 0° 88° (E) 2,347 1.0 -27.0°
